星链-3899 (STARLINK-3899 )

导读 | 豆包AI

STARLINK-3899是美国SpaceX公司星链(Starlink)低轨卫星互联网星座的成员,于2022年5月6日由猎鹰9号运载火箭发射升空。作为星链星座组网的一部分,它运行在近地轨道,配备霍尔推进器与高通量天线,主要为全球偏远欠发达地区提供高速低延迟的卫星互联网接入服务,推动实现全球网络覆盖。

基本信息
目录编号:
52457
目录名称:
STARLINK-3899
国际标识:
2022-049G
轨道中心:
EARTH
卫星名称:
星链-3899
卫星全名:
星链-3899 (STARLINK-3899 )
卫星状态:
在轨 (已飞行1408 天)
发射日期:
2022-05-06 UTC
国别 :
美国 (US)
星等 :
--
轨道信息
数据来源 国际轨道数据
星历时间: 2026-03-14T12:44:54+0800
18小时前
查看轨道信息
半长轴: 6917.871km
偏心率: 0.0001419
轨道倾角: 53.218°
近地点辐角 77.094°
升交点赤经 48.873°
平近点角 283.021°
近地点: 538.752km
远地点: 540.716km
周期: 95.437分钟
每日圈数: 15.088431
详细信息
固有亮度:
5
最大亮度:
2.5
卫星平台:
Starlink v1.5
覆盖范围:
全球
运营商:
太空探索技术公司
运营商所在国:
美国
制造商(研发单位):
太空探索技术公司
制造商所在国:
美国
使用方式:
暂无
卫星简介
星链(Starlink)计划是由太空探索技术公司(SpaceX)提出的一个巨型低轨卫星互联网星座项目,计划在2019年至2024年间在太空搭建由约1.2万颗卫星组成的“星链”网络,其中1584颗将部署在地球上空550千米处的近地轨道,并从2020年开始工作。该卫星仍在工作。
2D轨道图
3D轨道图
轨道高度分析图
轨道倾角分析图
轨道综合分析图
查看轨道综合分析图